Tracking 19245 objects as of 18-Aug-2018
HD Live streaming from Space Station
objects crossing your sky now

COSMOS 1577

Track COSMOS 1577 now!
10-day predictions
COSMOS 1577 is classified as:


NORAD ID: 15077
Int'l Code: 1984-067A
Perigee: 960.0 km
Apogee: 1,014.7 km
Inclination: 83.0 °
Period: 104.7 minutes
Semi major axis: 7358 km
RCS: 2.4814 m2 (large)
Launch date: June 27, 1984
Source: Commonwealth of Independent States (former USSR) (CIS)
Launch site: PLESETSK MISSILE AND SPACE COMPLEX (PKMTR)
aabbcc
Your satellite tracking list
Your tracking list is empty




NASA's NSSDC Master Catalog

Two Line Element Set (TLE):
1 15077U 84067A   18230.23905047  .00000039  00000-0  24116-4 0  9999
2 15077  82.9596 162.4195 0037177  64.9957  42.1493 13.75414494460559
Source of the keplerian elements: AFSPC